Pagosa Springs, CO

2:09 AM MST on January 23, 2018 (GMT -0700)
Pagosa Springs

Weather History for KPSO - March, 2014

Change the Weather History Date:

Tuesday, March 25, 2014

  Actual Average (KE33) Record (KE33)
Temperature  
Mean Temperature 42 °F -  
Max Temperature 60 °F 49 °F 68 °F (2012)
Min Temperature 24 °F 29 °F 24 °F (2008)
Degree Days  
Heating Degree Days 23    
Moisture  
Dew Point 5 °F    
Average Humidity 29    
Maximum Humidity 59    
Minimum Humidity 5    
Precipitation  
Precipitation 0.00 in - - ()
Sea Level Pressure  
Sea Level Pressure 30.13 in    
Wind  
Wind Speed 2 mph (SW)    
Max Wind Speed 13 mph    
Max Gust Speed 21 mph    
Visibility 10 miles    
Events      
Averages and records for this station are not official NWS values.
T = Trace of Precipitation, MM = Missing Value Source: NWS Daily Summary

Daily Weather History Graph

Daily Weather History Graph

Search for Another Location

Airport or City:

Trip Planner

Search our weather history database for the weather conditions in past years. The results will help you decide how hot, cold, wet, or windy it might be!

Date:

Astronomy

Mar. 25, 2014 Rise Set
Actual Time 7:04 AM MDT 7:24 PM MDT
Civil Twilight 6:38 AM MDT 7:50 PM MDT
Nautical Twilight 6:07 AM MDT 8:21 PM MDT
Astronomical Twilight 5:36 AM MDT 8:52 PM MDT
Moon 3:21 AM MDT (3/25) 2:04 PM MDT (3/25)
Length of Visible Light 13h 12m
Length of Day
12h 20m
Waning Crescent, 31% of the Moon is Illuminated
Mar 25
Waning Crescent
Mar 30
New
Apr 7
First Quarter
Apr 15
Full
Apr 22
Last Quarter

Hourly Weather History & Observations

Time (MDT) Temp. Windchill Dew Point Humidity Pressure Visibility Wind Dir Wind Speed Gust Speed Precip Events Conditions
12:15 AM 34.0 °F - 4.8 °F 29% 30.25 in 10.0 mi Calm Calm - N/A   Clear
12:35 AM 27.9 °F - 9.7 °F 47% 30.24 in 10.0 mi Calm Calm - N/A   Clear
12:55 AM 31.1 °F - 9.0 °F 40% 30.25 in 10.0 mi Calm Calm - N/A   Clear
1:15 AM 30.7 °F 24.9 °F 11.5 °F 45% 30.25 in 10.0 mi West 5.8 mph - N/A   Clear
1:35 AM 30.4 °F - 10.8 °F 44% 30.24 in 10.0 mi Calm Calm - N/A   Clear
1:55 AM 30.2 °F - 10.9 °F 45% 30.25 in 10.0 mi Calm Calm - N/A   Clear
2:15 AM 27.7 °F - 13.5 °F 55% 30.25 in 10.0 mi Calm Calm - N/A   Clear
2:35 AM 27.7 °F - 11.7 °F 51% 30.25 in 10.0 mi Calm Calm - N/A   Clear
2:55 AM 26.2 °F - 12.6 °F 56% 30.24 in 10.0 mi Calm Calm - N/A   Clear
3:15 AM 26.6 °F - 12.6 °F 55% 30.24 in 10.0 mi Calm Calm - N/A   Clear
3:35 AM 25.7 °F - 10.6 °F 53% 30.23 in 10.0 mi Calm Calm - N/A   Clear
3:55 AM 26.4 °F - 11.8 °F 54% 30.22 in 10.0 mi Calm Calm - N/A   Clear
4:15 AM 29.3 °F - 8.4 °F 42% 30.22 in 10.0 mi Calm Calm - N/A   Clear
4:35 AM 27.0 °F - 13.3 °F 56% 30.22 in 10.0 mi Calm Calm - N/A   Clear
4:55 AM 24.6 °F - 12.2 °F 59% 30.22 in 10.0 mi Calm Calm - N/A   Clear
5:15 AM 25.9 °F - 9.1 °F 49% 30.22 in 10.0 mi Calm Calm - N/A   Clear
5:35 AM 26.1 °F - 11.5 °F 54% 30.22 in 10.0 mi Calm Calm - N/A   Clear
5:55 AM 26.2 °F - 12.2 °F 55% 30.22 in 10.0 mi Calm Calm - N/A   Clear
6:15 AM 25.9 °F - 11.3 °F 54% 30.22 in 10.0 mi Calm Calm - N/A   Clear
6:35 AM 24.3 °F - 11.7 °F 59% 30.22 in 10.0 mi Calm Calm - N/A   Clear
6:55 AM 25.9 °F - 10.4 °F 52% 30.22 in 10.0 mi Calm Calm - N/A   Clear
7:15 AM 26.4 °F - 9.5 °F 49% 30.22 in 10.0 mi Calm Calm - N/A   Clear
7:35 AM 26.6 °F 22.6 °F 10.4 °F 51% 30.23 in 10.0 mi South 3.5 mph - N/A   Clear
7:55 AM 26.4 °F - 13.8 °F 59% 30.23 in 10.0 mi Calm Calm - N/A   Clear
8:15 AM 30.0 °F - 15.6 °F 55% 30.24 in 10.0 mi Calm Calm - N/A   Clear
8:35 AM 34.5 °F - 10.4 °F 37% 30.25 in 10.0 mi Calm Calm - N/A   Clear
8:55 AM 36.9 °F 34.3 °F 10.4 °F 34% 30.25 in 10.0 mi NE 3.5 mph - N/A   Clear
9:15 AM 38.3 °F 34.8 °F 10.4 °F 32% 30.25 in 10.0 mi ENE 4.6 mph - N/A   Clear
9:35 AM 39.9 °F 37.8 °F 8.8 °F 28% 30.24 in 10.0 mi NNE 3.5 mph - N/A   Clear
9:55 AM 43.9 °F 42.3 °F 7.5 °F 23% 30.24 in 10.0 mi NNE 3.5 mph - N/A   Clear
10:15 AM 45.5 °F - 4.8 °F 19% 30.24 in 10.0 mi Calm Calm - N/A   Clear
10:35 AM 47.5 °F - 1.2 °F 15% 30.23 in 10.0 mi NE 3.5 mph - N/A   Clear
10:55 AM 48.7 °F - 3.7 °F 16% 30.22 in 10.0 mi West 4.6 mph - N/A   Clear
11:15 AM 49.6 °F - 0.9 °F 13% 30.21 in 10.0 mi SSW 5.8 mph - N/A   Clear
11:35 AM 50.4 °F - -0.6 °F 12% 30.20 in 10.0 mi South 5.8 mph - N/A   Clear
11:55 AM 51.3 °F - 0.5 °F 13% 30.19 in 10.0 mi SSW 5.8 mph - N/A   Clear
12:15 PM 51.6 °F - 0.3 °F 12% 30.17 in 10.0 mi South 4.6 mph - N/A   Clear
12:35 PM 54.9 °F - -0.0 °F 11% 30.16 in 10.0 mi ESE 3.5 mph - N/A   Clear
12:55 PM 54.7 °F - -0.2 °F 11% 30.16 in 10.0 mi WSW 5.8 mph 9.2 mph N/A   Clear
1:15 PM 55.6 °F - 0.7 °F 11% 30.14 in 10.0 mi SSW 8.1 mph - N/A   Clear
1:35 PM 55.8 °F - -4.5 °F 8% 30.13 in 10.0 mi Calm Calm - N/A   Clear
1:55 PM 56.5 °F - -3.1 °F 9% 30.11 in 10.0 mi South 8.1 mph 16.1 mph N/A   Clear
2:15 PM 57.4 °F - -4.7 °F 8% 30.10 in 10.0 mi SW 8.1 mph 20.7 mph N/A   Clear
2:35 PM 58.1 °F - -9.8 °F 6% 30.09 in 10.0 mi West 12.7 mph 18.4 mph N/A   Clear
2:55 PM 58.6 °F - -12.5 °F 5% 30.07 in 10.0 mi SW 12.7 mph 19.6 mph N/A   Clear
3:15 PM 58.5 °F - -11.7 °F 5% 30.05 in 10.0 mi West 11.5 mph 17.3 mph N/A   Clear
3:35 PM 59.2 °F - -13.2 °F 5% 30.05 in 10.0 mi SW 12.7 mph 19.6 mph N/A   Clear
3:55 PM 59.5 °F - -5.3 °F 7% 30.03 in 10.0 mi WSW 12.7 mph - N/A   Clear
4:15 PM 60.1 °F - -7.2 °F 6% 30.02 in 10.0 mi SW 9.2 mph 16.1 mph N/A   Clear
4:35 PM 59.2 °F - -8.3 °F 6% 30.01 in 10.0 mi WSW 6.9 mph 20.7 mph N/A   Clear
4:55 PM 58.6 °F - -8.5 °F 6% 30.00 in 10.0 mi South 11.5 mph - N/A   Clear
5:15 PM 59.0 °F - -7.6 °F 6% 30.00 in 10.0 mi SW 11.5 mph 17.3 mph N/A   Clear
5:35 PM 59.0 °F - -6.9 °F 7% 29.99 in 10.0 mi WSW 10.4 mph 16.1 mph N/A   Clear
5:55 PM 58.5 °F - -8.7 °F 6% 29.99 in 10.0 mi WSW 9.2 mph - N/A   Clear
6:15 PM 58.1 °F - -8.1 °F 7% 29.98 in 10.0 mi SW 6.9 mph - N/A   Clear
6:35 PM 57.4 °F - -5.4 °F 8% 29.97 in 10.0 mi SW 8.1 mph - N/A   Clear
6:55 PM 56.3 °F - -1.8 °F 9% 29.97 in 10.0 mi WSW 5.8 mph - N/A   Clear
7:15 PM 55.2 °F - -4.4 °F 9% 29.96 in 10.0 mi SW 5.8 mph - N/A   Clear
7:35 PM 47.8 °F - 7.0 °F 19% 29.95 in 10.0 mi Calm Calm - N/A   Clear
7:55 PM 44.2 °F - 7.5 °F 22% 29.95 in 10.0 mi Calm Calm - N/A   Clear
8:15 PM 44.2 °F - 10.9 °F 26% 29.95 in 10.0 mi Calm Calm - N/A   Scattered Clouds
8:35 PM 47.3 °F - 9.3 °F 21% 29.97 in 10.0 mi SW 5.8 mph - N/A   Overcast
8:55 PM 48.0 °F - 8.2 °F 20% 29.97 in 10.0 mi SW 4.6 mph - N/A   Mostly Cloudy
9:15 PM 45.0 °F 42.6 °F 13.3 °F 28% 29.98 in 10.0 mi West 4.6 mph - N/A   Scattered Clouds
9:35 PM 47.8 °F - 8.8 °F 21% 29.98 in 10.0 mi SW 3.5 mph - N/A   Clear
9:55 PM 41.4 °F - 10.0 °F 28% 29.98 in 10.0 mi Calm Calm - N/A   Clear
10:15 PM 37.4 °F - 13.5 °F 38% 29.98 in 10.0 mi Calm Calm - N/A   Clear
10:35 PM 41.9 °F 40.0 °F 8.8 °F 26% 29.99 in 10.0 mi NE 3.5 mph - N/A   Clear
10:55 PM 37.2 °F - 12.4 °F 36% 29.98 in 10.0 mi Calm Calm - N/A   Clear
11:15 PM 37.2 °F - 13.1 °F 37% 29.97 in 10.0 mi Calm Calm - N/A   Mostly Cloudy
11:35 PM 40.3 °F 36.3 °F 12.2 °F 32% 29.97 in 10.0 mi NE 5.8 mph - N/A   Overcast
11:55 PM 40.1 °F - 13.8 °F 34% 29.97 in 10.0 mi Calm Calm - N/A   Overcast